User: anonymous   Login
Location: Unspecified
(0.0000°N, 0.0000°E)
Time: 20:45:11
(UTC+00:00)
Language:

GALILEO 9 (205) - Orbit

View from above orbital plane
View from above orbital plane
View from above satellite
View from above satellite

Ground track
Ground track

The orbit is defined by the following mean orbital elements,

1 40889U          26105.47814955 +.00000000 +00000-0 +00000-0 0 00009
2 40889  54.9657 223.4453 0004687 268.4414  91.4761  1.67410740    02
Epoch (UTC): 15 April 2026 11:28:32
Eccentricity: 0.0004687
inclination: 54.9657°
perigee height: 23568 km
apogee height: 23596 km
right ascension of ascending node: 223.4453°
argument of perigee: 268.4414°
revolutions per day: 1.67410740
mean anomaly at epoch: 91.4761°

The dashed part of the orbit path shows where the satellite is in the earth's shadow,  

DLR